Ozark, AL

2:01 PM CDT on March 23, 2017 (GMT -0500)
Cairns Army Air Field

Weather History for KOZR - November, 2013

Change the Weather History Date:

Saturday, November 2, 2013

  Actual Average Record
Temperature  
Mean Temperature 62 °F -  
Max Temperature 76 °F 72 °F 86 °F (1998)
Min Temperature 50 °F 49 °F 32 °F (2014)
Degree Days  
Heating Degree Days 2    
Growing Degree Days 12 (Base 50)    
Moisture  
Dew Point 49 °F    
Average Humidity 67    
Maximum Humidity 97    
Minimum Humidity 34    
Precipitation  
Precipitation 0.00 in - - ()
Sea Level Pressure  
Sea Level Pressure 29.97 in    
Wind  
Wind Speed 6 mph (NW)    
Max Wind Speed 13 mph    
Max Gust Speed -    
Visibility 10 miles    
Events      
Averages and records for this station are not official NWS values.
T = Trace of Precipitation, MM = Missing Value Source: NWS Daily Summary

Daily Weather History Graph

Daily Weather History Graph

Search for Another Location

Airport or City:

Trip Planner

Search our weather history database for the weather conditions in past years. The results will help you decide how hot, cold, wet, or windy it might be!

Date:

Astronomy

Nov. 02, 2013 Rise Set
Actual Time 6:59 AM CDT 5:52 PM CDT
Civil Twilight 6:34 AM CDT 6:18 PM CDT
Nautical Twilight 6:05 AM CDT 6:46 PM CDT
Astronomical Twilight 5:37 AM CDT 7:15 PM CDT
Moon 5:58 AM CDT (11/2) 5:22 PM CDT (11/2)
Length of Visible Light 11h 43m
Length of Day
10h 53m
Waning Crescent, 1% of the Moon is Illuminated
Nov 2
Waning Crescent
Nov 3
New
Nov 9
First Quarter
Nov 17
Full
Nov 25
Last Quarter

Hourly Weather History & Observations

Time (CDT) Temp. Dew Point Humidity Pressure Visibility Wind Dir Wind Speed Gust Speed Precip Events Conditions
12:58 AM 58.5 °F 57.0 °F 95% 29.88 in 10.0 mi NNW 4.6 mph - N/A   Scattered Clouds
1:58 AM 56.1 °F 54.0 °F 92% 29.88 in 10.0 mi NW 4.6 mph - N/A   Partly Cloudy
2:58 AM 55.0 °F 52.7 °F 92% 29.88 in 10.0 mi NW 4.6 mph - N/A   Partly Cloudy
3:58 AM 54.5 °F 51.4 °F 89% 29.89 in 10.0 mi NNW 4.6 mph - N/A   Scattered Clouds
4:58 AM 52.0 °F 50.7 °F 95% 29.90 in 10.0 mi Calm Calm - N/A   Clear
5:58 AM 50.4 °F 49.6 °F 97% 29.91 in 10.0 mi WNW 2.3 mph - N/A   Clear
6:58 AM 50.5 °F 49.3 °F 95% 29.94 in 10.0 mi NW 3.5 mph - N/A   Partly Cloudy
7:58 AM 54.1 °F 50.5 °F 88% 29.96 in 10.0 mi NW 8.1 mph - N/A   Clear
8:58 AM 58.1 °F 52.7 °F 82% 29.99 in 10.0 mi WNW 5.8 mph - N/A   Partly Cloudy
9:58 AM 60.6 °F 53.6 °F 78% 30.00 in 10.0 mi NW 5.8 mph - N/A   Partly Cloudy
10:58 AM 67.6 °F 55.2 °F 64% 30.00 in 10.0 mi WNW 4.6 mph - N/A   Clear
11:58 AM 72.9 °F 50.5 °F 45% 29.99 in 10.0 mi NNW 6.9 mph - N/A   Clear
12:58 PM 75.0 °F 49.5 °F 40% 29.96 in 10.0 mi West 9.2 mph - N/A   Clear
1:58 PM 75.6 °F 46.9 °F 36% 29.94 in 10.0 mi WNW 12.7 mph - N/A   Clear
2:58 PM 75.6 °F 45.0 °F 34% 29.91 in 10.0 mi NW 10.4 mph - N/A   Scattered Clouds
3:58 PM 73.8 °F 46.8 °F 38% 29.93 in 10.0 mi WNW 9.2 mph - N/A   Clear
4:58 PM 71.4 °F 45.7 °F 40% 29.95 in 10.0 mi WNW 11.5 mph - N/A   Clear
5:58 PM 66.0 °F 45.5 °F 48% 29.97 in 10.0 mi NW 6.9 mph - N/A   Clear
6:58 PM 62.1 °F 45.1 °F 54% 30.01 in 10.0 mi NW 5.8 mph - N/A   Clear
7:58 PM 60.6 °F 44.1 °F 54% 30.05 in 10.0 mi NW 6.9 mph - N/A   Clear
8:58 PM 58.3 °F 43.5 °F 58% 30.07 in 10.0 mi NW 8.1 mph - N/A   Clear
9:58 PM 56.7 °F 42.3 °F 59% 30.09 in 10.0 mi NW 5.8 mph - N/A   Clear
10:58 PM 54.3 °F 42.6 °F 65% 30.10 in 10.0 mi NW 6.9 mph - N/A   Clear
11:58 PM 53.4 °F 42.4 °F 66% 30.09 in 10.0 mi NW 9.2 mph - N/A   Clear